Home   Weather   Hong Kong   Past weeks

Flag for Hong Kong Past Weather in Hong Kong, Hong Kong — Yesterday and Last 2 Weeks

Now
84 °F

Passing clouds.


Feels Like: 96 °F
Forecast: 80 / 94 °F
Wind: 1 mph from North

Location: National Airport

Current Time: Sep 27, 2016 at 4:46:40 AM

Latest Report: Sep 27, 2016 at 4:00 AM


Visibility: 4 mi

Pressure: 29.65 "Hg

Humidity: 84%

Dew Point: 79 °F

Location of Hong KongLocation

Past Weather in Hong Kong — Graph

°F

Hong Kong Temperature Yesterday

Maximum temperature yesterday: 90 °F (at 1:00 PM)
Minimum temperature yesterday: 81 °F (at 4:30 AM)
Average temperature yesterday: 85 °F

High & Low Weather Summary for the Past Weeks

 TemperatureHumidityPressure
High93 °F (Sep 17, 3:30 PM)94% (Sep 12, 6:30 AM)29.98 "Hg (Sep 12, 6:30 AM)
Low73 °F (Sep 20, 10:00 AM)46% (Sep 21, 2:00 PM)29.56 "Hg (Sep 15, 3:30 PM)
Average85 °F68%29.79 "Hg
* Reported Sep 12 3:00 AM — Sep 27 3:30 AM, Hong Kong, Weather by CustomWeather, © 2016

Note: Actual official high and low records may vary slightly from our data, if they occured in-between our weather recording intervals... More about our weather records

Advertising

Hong Kong Weather History for the Previous 24 Hours

Scroll right to see more
 ConditionsComfort  
Time TempWeatherWind HumidityBarometerVisibility
3:30 AM
Tue, Sep 27
84 °FPassing clouds.1 mph79%29.65 "Hg4 mi
3:00 AM84 °FPassing clouds.2 mph79%29.65 "Hg4 mi
2:30 AM84 °FPassing clouds.2 mph79%29.68 "Hg4 mi
2:00 AM84 °FPassing clouds.3 mph79%29.68 "Hg4 mi
1:30 AM84 °FPassing clouds.5 mph84%29.68 "Hg4 mi
1:00 AM84 °FPassing clouds.3 mph84%29.71 "Hg4 mi
12:30 AM84 °FPassing clouds.3 mph84%29.71 "Hg4 mi
12:00 AM84 °FPassing clouds.3 mph84%29.71 "Hg4 mi
11:30 PM
Mon, Sep 26
86 °FPassing clouds.2 mph75%29.71 "Hg4 mi
11:00 PM84 °FPassing clouds.3 mph79%29.71 "Hg4 mi
10:30 PM86 °FPassing clouds.5 mph79%29.74 "Hg4 mi
10:00 PM86 °FPassing clouds.3 mph75%29.74 "Hg4 mi
9:30 PM86 °FPassing clouds.6 mph79%29.74 "Hg4 mi
9:00 PM84 °FPassing clouds.2 mph84%29.74 "Hg4 mi
8:30 PM86 °FPassing clouds.7 mph79%29.71 "Hg4 mi
8:00 PM86 °FPassing clouds.8 mph75%29.71 "Hg5 mi
7:30 PM86 °FPassing clouds.12 mph75%29.71 "Hg5 mi
7:00 PM86 °FPassing clouds.7 mph75%29.71 "Hg5 mi
6:30 PM86 °FPassing clouds.3 mph75%29.71 "Hg5 mi
6:00 PM88 °FPassing clouds.9 mph70%29.71 "Hg5 mi
5:30 PM90 °FPassing clouds.12 mph67%29.68 "Hg5 mi
5:00 PM88 °FPassing clouds.16 mph70%29.68 "Hg6 mi
4:30 PM90 °FPassing clouds.17 mph67%29.68 "Hg6 mi
4:00 PM90 °FPassing clouds.15 mph67%29.68 "Hg5 mi
3:30 PM90 °FPassing clouds.12 mph67%29.68 "Hg5 mi
3:00 PM90 °FPassing clouds.10 mph67%29.68 "Hg4 mi
2:30 PM90 °FPassing clouds.8 mph63%29.71 "Hg4 mi
2:00 PM90 °FPassing clouds.6 mph63%29.71 "Hg4 mi
1:30 PM90 °FPassing clouds.6 mph67%29.74 "Hg4 mi
1:00 PM90 °FPassing clouds.6 mph67%29.74 "Hg5 mi
12:30 PM88 °FPassing clouds.7 mph66%29.77 "Hg5 mi
12:00 PM88 °FPassing clouds.8 mph70%29.77 "Hg5 mi
11:30 AM86 °FPassing clouds.7 mph75%29.80 "Hg5 mi
11:00 AM86 °FPassing clouds.7 mph70%29.80 "Hg6 mi
10:30 AM86 °FPassing clouds.7 mph70%29.80 "Hg6 mi
10:00 AM86 °FPassing clouds.6 mph75%29.83 "Hg4 mi
9:30 AM86 °FPassing clouds.6 mph70%29.83 "Hg5 mi
9:00 AM84 °FPassing clouds.6 mph74%29.83 "Hg6 mi
8:30 AM86 °FPassing clouds.3 mph70%29.83 "Hg6 mi
8:00 AM84 °FPassing clouds.5 mph74%29.80 "Hg6 mi
7:30 AM84 °FPassing clouds.3 mph74%29.80 "Hg5 mi
7:00 AM82 °FPassing clouds.6 mph79%29.80 "Hg5 mi
6:30 AM82 °FPassing clouds.3 mph79%29.80 "Hg5 mi
6:00 AM82 °FPassing clouds.5 mph79%29.77 "Hg6 mi
5:30 AM81 °FPassing clouds.3 mph84%29.77 "Hg5 mi
5:00 AM81 °FPassing clouds.7 mph84%29.77 "Hg5 mi
4:30 AM81 °FPassing clouds.3 mph84%29.77 "Hg5 mi
4:00 AM82 °FPassing clouds.5 mph79%29.77 "Hg6 mi
Weather by CustomWeather, © 2016

See weather overviewHow to use our weather pages